Time,TemperatureF,DewpointF,PressureIn,WindDirection,WindDirectionDegrees,WindSpeedMPH,WindSpeedGustMPH,Humidity,HourlyPrecipIn,Conditions,Clouds,dailyrainin,SoftwareType,DateUTC
2013-07-03 00:00:00,59.7,57.4,29.66,SE,135,0.7,3.5,92,0.00,CLR,SKC,0.00,WeatherDisplay:10.37,2013-07-02 23:00:00,
2013-07-03 00:05:00,59.7,57.4,29.66,SE,135,0.7,3.5,92,0.00,CLR,SKC,0.00,WeatherDisplay:10.37,2013-07-02 23:05:00,
2013-07-03 00:10:00,59.7,57.4,29.66,South,180,1.6,4.6,92,0.00,CLR,SKC,0.00,WeatherDisplay:10.37,2013-07-02 23:10:00,
2013-07-03 00:15:00,59.7,57.7,29.65,SE,135,3.8,8.1,93,0.00,CLR,SKC,0.00,WeatherDisplay:10.37,2013-07-02 23:15:00,
2013-07-03 00:20:00,59.7,58.0,29.65,NW,315,1.6,6.9,94,0.00,CLR,SKC,0.00,WeatherDisplay:10.37,2013-07-02 23:20:00,
2013-07-03 00:25:00,59.7,58.0,29.65,NW,315,1.6,6.9,94,0.00,CLR,SKC,0.00,WeatherDisplay:10.37,2013-07-02 23:25:00,
2013-07-03 00:30:00,59.7,58.0,29.65,East,90,2.2,10.4,94,0.00,CLR,SKC,0.00,WeatherDisplay:10.37,2013-07-02 23:30:00,
2013-07-03 00:35:00,59.7,58.0,29.65,South,180,3.1,10.4,94,0.00,CLR,SKC,0.00,WeatherDisplay:10.37,2013-07-02 23:35:00,
2013-07-03 00:40:00,59.7,58.0,29.65,WSW,248,0.7,4.6,94,0.00,CLR,SKC,0.00,WeatherDisplay:10.37,2013-07-02 23:40:00,
2013-07-03 00:45:00,59.7,58.0,29.65,East,90,0.7,4.6,94,0.00,CLR,SKC,0.00,WeatherDisplay:10.37,2013-07-02 23:45:00,
2013-07-03 00:50:00,59.7,58.3,29.65,West,270,2.2,7.6,95,0.00,CLR,SKC,0.00,WeatherDisplay:10.37,2013-07-02 23:50:00,
2013-07-03 00:54:00,59.7,58.3,29.65,West,270,2.2,7.6,95,0.00,CLR,SKC,0.00,WeatherDisplay:10.37,2013-07-02 23:54:00,
2013-07-03 00:59:00,59.5,58.1,29.65,NW,315,0.7,8.1,95,0.00,CLR,SKC,0.00,WeatherDisplay:10.37,2013-07-02 23:59:00,
2013-07-03 01:02:00,59.7,58.3,29.65,South,180,3.1,8.3,95,0.00,CLR,SKC,0.00,WeatherDisplay:10.37,2013-07-03 00:02:00,
2013-07-03 01:06:00,59.7,58.3,29.65,South,180,3.1,8.3,95,0.00,CLR,SKC,0.00,WeatherDisplay:10.37,2013-07-03 00:06:00,
2013-07-03 01:11:00,59.5,58.1,29.64,SE,135,2.2,6.9,95,0.00,CLR,SKC,0.00,WeatherDisplay:10.37,2013-07-03 00:11:00,
2013-07-03 01:16:00,59.5,58.1,29.64,SE,135,2.2,6.9,95,0.00,CLR,SKC,0.00,WeatherDisplay:10.37,2013-07-03 00:16:00,
2013-07-03 01:21:00,59.5,58.4,29.64,SE,135,2.2,6.0,96,0.00,CLR,SKC,0.00,WeatherDisplay:10.37,2013-07-03 00:21:00,
2013-07-03 01:23:00,59.5,58.4,29.64,SE,135,2.2,6.0,96,0.00,CLR,SKC,0.00,WeatherDisplay:10.37,2013-07-03 00:23:00,
2013-07-03 01:24:00,59.5,58.4,29.64,SE,135,2.2,6.0,96,0.00,CLR,SKC,0.00,WeatherDisplay:10.37,2013-07-03 00:24:00,
2013-07-03 01:28:00,59.5,58.4,29.64,SE,135,2.2,6.0,96,0.00,CLR,SKC,0.00,WeatherDisplay:10.37,2013-07-03 00:28:00,
2013-07-03 01:33:00,59.4,58.2,29.63,South,180,1.6,8.1,96,0.00,CLR,SKC,0.00,WeatherDisplay:10.37,2013-07-03 00:33:00,
2013-07-03 01:38:00,59.4,58.2,29.64,NE,45,1.6,8.1,96,0.00,CLR,SKC,0.00,WeatherDisplay:10.37,2013-07-03 00:38:00,
2013-07-03 01:43:00,59.4,58.2,29.63,SE,135,1.6,3.8,96,0.00,CLR,SKC,0.00,WeatherDisplay:10.37,2013-07-03 00:43:00,
2013-07-03 01:48:00,59.4,58.2,29.63,NNW,338,0.0,3.5,96,0.00,CLR,SKC,0.00,WeatherDisplay:10.37,2013-07-03 00:48:00,
2013-07-03 01:53:00,59.4,58.5,29.63,ENE,68,2.2,5.8,97,0.00,CLR,SKC,0.00,WeatherDisplay:10.37,2013-07-03 00:53:00,
2013-07-03 01:58:00,59.4,58.5,29.62,SE,135,2.2,6.0,97,0.00,CLR,SKC,0.00,WeatherDisplay:10.37,2013-07-03 00:58:00,
2013-07-03 02:00:00,59.4,58.5,29.63,East,90,0.0,5.8,97,0.00,CLR,SKC,0.00,WeatherDisplay:10.37,2013-07-03 01:00:00,
2013-07-03 02:03:00,59.4,58.5,29.63,East,90,0.0,5.8,97,0.00,CLR,SKC,0.00,WeatherDisplay:10.37,2013-07-03 01:03:00,
2013-07-03 02:08:00,59.4,58.5,29.63,East,90,0.0,5.8,97,0.00,CLR,SKC,0.00,WeatherDisplay:10.37,2013-07-03 01:08:00,
2013-07-03 02:09:00,59.4,58.5,29.62,WSW,248,3.1,5.8,97,0.00,CLR,SKC,0.00,WeatherDisplay:10.37,2013-07-03 01:09:00,
2013-07-03 02:14:00,59.4,58.5,29.62,SE,135,1.6,5.8,97,0.00,CLR,SKC,0.00,WeatherDisplay:10.37,2013-07-03 01:14:00,
2013-07-03 02:19:00,59.4,58.5,29.62,South,180,3.1,6.0,97,0.00,CLR,SKC,0.00,WeatherDisplay:10.37,2013-07-03 01:19:00,
2013-07-03 02:24:00,59.4,58.5,29.62,South,180,0.7,5.8,97,0.00,CLR,SKC,0.00,WeatherDisplay:10.37,2013-07-03 01:24:00,
2013-07-03 02:26:00,59.4,58.5,29.62,South,180,0.7,5.8,97,0.00,CLR,SKC,0.00,WeatherDisplay:10.37,2013-07-03 01:26:00,
2013-07-03 02:31:00,59.4,58.8,29.62,South,180,0.7,3.5,98,0.00,CLR,SKC,0.00,WeatherDisplay:10.37,2013-07-03 01:31:00,
2013-07-03 02:36:00,59.4,58.8,29.62,South,180,0.7,3.5,98,0.00,CLR,SKC,0.00,WeatherDisplay:10.37,2013-07-03 01:36:00,
2013-07-03 02:41:00,59.4,58.8,29.62,North,7,0.7,3.5,98,0.00,CLR,SKC,0.00,WeatherDisplay:10.37,2013-07-03 01:41:00,
2013-07-03 02:47:00,59.4,58.8,29.62,North,7,0.7,3.5,98,0.00,CLR,SKC,0.00,WeatherDisplay:10.37,2013-07-03 01:47:00,
2013-07-03 02:49:00,59.4,58.8,29.62,North,7,0.7,3.5,98,0.00,CLR,SKC,0.00,WeatherDisplay:10.37,2013-07-03 01:49:00,
2013-07-03 02:50:00,59.4,58.8,29.62,North,0,0.7,3.5,98,0.00,CLR,SKC,0.00,WeatherDisplay:10.37,2013-07-03 01:50:00,
2013-07-03 02:55:00,59.4,58.8,29.62,North,0,0.7,3.5,98,0.00,CLR,SKC,0.00,WeatherDisplay:10.37,2013-07-03 01:55:00,
2013-07-03 03:00:00,59.4,59.1,29.61,SE,135,0.7,3.8,99,0.00,CLR,SKC,0.00,WeatherDisplay:10.37,2013-07-03 02:00:00,
2013-07-03 03:05:00,59.4,59.1,29.61,SE,135,0.7,3.8,99,0.00,CLR,SKC,0.00,WeatherDisplay:10.37,2013-07-03 02:05:00,
2013-07-03 03:10:00,59.4,59.1,29.61,North,6,0.7,3.8,99,0.00,CLR,SKC,0.00,WeatherDisplay:10.37,2013-07-03 02:10:00,
2013-07-03 03:15:00,59.4,59.1,29.61,North,6,0.7,3.8,99,0.00,CLR,SKC,0.00,WeatherDisplay:10.37,2013-07-03 02:15:00,
2013-07-03 03:20:00,59.4,59.1,29.61,North,0,0.7,3.8,99,0.00,CLR,SKC,0.00,WeatherDisplay:10.37,2013-07-03 02:20:00,
2013-07-03 03:25:00,59.4,59.1,29.61,North,0,0.7,3.8,99,0.00,CLR,SKC,0.00,WeatherDisplay:10.37,2013-07-03 02:25:00,
2013-07-03 03:30:00,58.8,58.8,29.61,SE,135,0.0,0.0,100,0.01,RA,SKC,0.01,WeatherDisplay:10.37,2013-07-03 02:30:00,
2013-07-03 03:33:00,58.8,58.8,29.61,SE,135,0.0,0.0,100,0.01,RA,SKC,0.01,WeatherDisplay:10.37,2013-07-03 02:33:00,
2013-07-03 03:38:00,58.8,58.8,29.61,NE,45,0.0,0.0,100,0.01,RA,SKC,0.01,WeatherDisplay:10.37,2013-07-03 02:38:00,
2013-07-03 03:43:00,58.8,58.8,29.61,South,180,0.0,1.1,100,0.01,RA,SKC,0.01,WeatherDisplay:10.37,2013-07-03 02:43:00,
2013-07-03 03:47:00,58.8,58.8,29.61,South,180,0.0,1.1,100,0.01,RA,SKC,0.01,WeatherDisplay:10.37,2013-07-03 02:47:00,
2013-07-03 03:52:00,58.6,58.6,29.61,South,180,0.0,1.1,100,0.04,RA,SKC,0.04,WeatherDisplay:10.37,2013-07-03 02:52:00,
2013-07-03 03:57:00,58.6,58.6,29.61,South,180,0.0,1.1,100,0.04,RA,SKC,0.04,WeatherDisplay:10.37,2013-07-03 02:57:00,
2013-07-03 04:02:00,58.5,58.5,29.61,SE,135,1.6,3.1,100,0.04,RA,SKC,0.04,WeatherDisplay:10.37,2013-07-03 03:02:00,
2013-07-03 04:07:00,58.5,58.5,29.61,WSW,248,0.7,3.5,100,0.04,RA,SKC,0.04,WeatherDisplay:10.37,2013-07-03 03:07:00,
2013-07-03 04:12:00,58.5,58.5,29.62,WSW,248,0.7,2.3,100,0.04,RA,SKC,0.04,WeatherDisplay:10.37,2013-07-03 03:12:00,
2013-07-03 04:18:00,58.5,58.5,29.61,WSW,248,0.7,2.3,100,0.04,,SKC,0.04,WeatherDisplay:10.37,2013-07-03 03:18:00,
2013-07-03 04:21:00,58.5,58.5,29.61,NNE,12,0.7,2.3,100,0.04,CLR,SKC,0.04,WeatherDisplay:10.37,2013-07-03 03:21:00,
2013-07-03 04:26:00,58.5,58.5,29.61,NNE,12,0.7,2.3,100,0.04,CLR,SKC,0.04,WeatherDisplay:10.37,2013-07-03 03:26:00,
2013-07-03 04:31:00,58.5,58.5,29.61,South,180,1.6,3.5,100,0.04,CLR,SKC,0.04,WeatherDisplay:10.37,2013-07-03 03:31:00,
2013-07-03 04:35:00,58.5,58.5,29.61,South,180,1.6,3.5,100,0.04,CLR,SKC,0.04,WeatherDisplay:10.37,2013-07-03 03:35:00,
2013-07-03 04:39:00,58.5,58.5,29.61,South,180,0.0,2.3,100,0.04,CLR,SKC,0.04,WeatherDisplay:10.37,2013-07-03 03:39:00,
2013-07-03 04:44:00,58.5,58.5,29.61,NW,315,0.7,3.5,100,0.04,CLR,SKC,0.04,WeatherDisplay:10.37,2013-07-03 03:44:00,
2013-07-03 04:49:00,58.5,58.5,29.61,South,180,0.0,3.5,100,0.04,CLR,SKC,0.04,WeatherDisplay:10.37,2013-07-03 03:49:00,
2013-07-03 04:54:00,58.5,58.5,29.61,SE,135,0.0,3.5,100,0.04,CLR,SKC,0.04,WeatherDisplay:10.37,2013-07-03 03:54:00,
2013-07-03 04:59:00,58.5,58.5,29.61,North,0,0.0,3.5,100,0.04,CLR,SKC,0.04,WeatherDisplay:10.37,2013-07-03 03:59:00,
2013-07-03 05:00:00,58.5,58.5,29.61,West,270,0.7,3.5,100,0.04,CLR,SKC,0.04,WeatherDisplay:10.37,2013-07-03 04:00:00,
2013-07-03 05:01:00,58.5,58.5,29.61,West,270,0.7,3.5,100,0.04,CLR,SKC,0.04,WeatherDisplay:10.37,2013-07-03 04:01:00,
2013-07-03 05:03:00,58.5,58.5,29.61,West,270,0.7,3.5,100,0.04,CLR,SKC,0.04,WeatherDisplay:10.37,2013-07-03 04:03:00,
2013-07-03 05:04:00,58.5,58.5,29.61,West,270,0.7,3.5,100,0.04,CLR,SKC,0.04,WeatherDisplay:10.37,2013-07-03 04:04:00,
2013-07-03 05:09:00,58.5,58.5,29.61,NNE,22,0.7,3.5,100,0.04,CLR,SKC,0.04,WeatherDisplay:10.37,2013-07-03 04:09:00,
2013-07-03 05:10:00,58.5,58.5,29.61,NNE,22,0.0,3.5,100,0.04,CLR,SKC,0.04,WeatherDisplay:10.37,2013-07-03 04:10:00,
2013-07-03 05:15:00,58.5,58.5,29.61,NNE,22,0.0,3.5,100,0.04,CLR,SKC,0.04,WeatherDisplay:10.37,2013-07-03 04:15:00,
2013-07-03 05:20:00,58.6,58.6,29.61,SE,135,0.0,5.8,100,0.04,CLR,SKC,0.04,WeatherDisplay:10.37,2013-07-03 04:20:00,
2013-07-03 05:25:00,58.6,58.6,29.61,SE,135,0.0,5.8,100,0.04,CLR,SKC,0.04,WeatherDisplay:10.37,2013-07-03 04:25:00,
2013-07-03 05:30:00,58.6,58.6,29.61,East,90,0.0,2.3,100,0.04,CLR,SKC,0.04,WeatherDisplay:10.37,2013-07-03 04:30:00,
2013-07-03 05:31:00,58.6,58.6,29.61,East,90,0.0,2.3,100,0.04,CLR,SKC,0.04,WeatherDisplay:10.37,2013-07-03 04:31:00,
2013-07-03 05:32:00,58.6,58.6,29.61,East,90,0.0,2.3,100,0.04,CLR,SKC,0.04,WeatherDisplay:10.37,2013-07-03 04:32:00,
2013-07-03 05:37:00,58.8,58.8,29.61,North,0,0.0,2.2,100,0.04,CLR,SKC,0.04,WeatherDisplay:10.37,2013-07-03 04:37:00,
2013-07-03 05:42:00,58.6,58.6,29.61,South,180,0.0,3.5,100,0.04,CLR,SKC,0.04,WeatherDisplay:10.37,2013-07-03 04:42:00,
2013-07-03 05:46:00,58.6,58.6,29.61,South,180,0.0,3.5,100,0.04,CLR,SKC,0.04,WeatherDisplay:10.37,2013-07-03 04:46:00,
2013-07-03 05:51:00,58.8,58.8,29.62,NNW,338,0.7,2.3,100,0.04,CLR,SKC,0.04,WeatherDisplay:10.37,2013-07-03 04:51:00,
2013-07-03 05:53:00,58.8,58.8,29.62,NNW,338,0.7,2.3,100,0.04,CLR,SKC,0.04,WeatherDisplay:10.37,2013-07-03 04:53:00,
2013-07-03 05:58:00,58.8,58.8,29.62,North,0,0.7,2.3,100,0.04,CLR,SKC,0.04,WeatherDisplay:10.37,2013-07-03 04:58:00,
2013-07-03 06:03:00,59.0,59.0,29.62,SE,135,0.7,3.5,100,0.02,CLR,SKC,0.04,WeatherDisplay:10.37,2013-07-03 05:03:00,
2013-07-03 06:07:00,59.0,59.0,29.62,SE,135,0.7,3.5,100,0.02,CLR,SKC,0.04,WeatherDisplay:10.37,2013-07-03 05:07:00,
2013-07-03 06:12:00,59.0,59.0,29.62,NW,315,0.7,1.6,100,0.02,CLR,SKC,0.04,WeatherDisplay:10.37,2013-07-03 05:12:00,
2013-07-03 06:17:00,59.0,59.0,29.62,NW,315,0.7,1.6,100,0.02,CLR,SKC,0.04,WeatherDisplay:10.37,2013-07-03 05:17:00,
2013-07-03 06:19:00,59.2,59.2,29.62,NW,315,0.0,1.1,100,0.00,CLR,SKC,0.04,WeatherDisplay:10.37,2013-07-03 05:19:00,
2013-07-03 06:24:00,59.2,59.2,29.62,NW,315,0.0,2.3,100,0.00,CLR,SKC,0.04,WeatherDisplay:10.37,2013-07-03 05:24:00,
2013-07-03 06:29:00,59.2,59.2,29.63,NW,315,0.0,3.8,100,0.00,CLR,SKC,0.04,WeatherDisplay:10.37,2013-07-03 05:29:00,
2013-07-03 06:35:00,59.4,59.4,29.63,SE,135,0.0,3.5,100,0.00,CLR,SKC,0.04,WeatherDisplay:10.37,2013-07-03 05:35:00,
2013-07-03 06:41:00,59.4,59.4,29.62,NW,315,0.7,3.5,100,0.00,CLR,SKC,0.04,WeatherDisplay:10.37,2013-07-03 05:41:00,
2013-07-03 06:46:00,59.4,59.4,29.62,NW,315,0.7,3.5,100,0.00,CLR,SKC,0.04,WeatherDisplay:10.37,2013-07-03 05:46:00,
2013-07-03 06:52:00,59.4,59.4,29.62,North,0,0.0,3.5,100,0.00,CLR,SKC,0.04,WeatherDisplay:10.37,2013-07-03 05:52:00,
2013-07-03 06:54:00,59.4,59.4,29.62,North,0,0.0,3.5,100,0.00,CLR,SKC,0.04,WeatherDisplay:10.37,2013-07-03 05:54:00,
2013-07-03 06:58:00,59.4,59.4,29.63,SE,135,0.0,3.5,100,0.00,CLR,SKC,0.04,WeatherDisplay:10.37,2013-07-03 05:58:00,
2013-07-03 07:04:00,59.5,59.5,29.63,SE,135,0.7,3.5,100,0.00,CLR,SKC,0.04,WeatherDisplay:10.37,2013-07-03 06:04:00,
2013-07-03 07:09:00,59.7,59.7,29.63,ESE,112,0.0,3.5,100,0.00,CLR,SKC,0.04,WeatherDisplay:10.37,2013-07-03 06:09:00,
2013-07-03 07:13:00,59.7,59.7,29.63,East,90,2.2,5.8,100,0.00,CLR,SKC,0.04,WeatherDisplay:10.37,2013-07-03 06:13:00,
2013-07-03 07:16:00,59.7,59.7,29.63,East,90,2.2,5.8,100,0.00,CLR,SKC,0.04,WeatherDisplay:10.37,2013-07-03 06:16:00,
2013-07-03 07:17:00,59.9,59.9,29.63,WNW,292,2.2,5.8,100,0.00,CLR,SKC,0.04,WeatherDisplay:10.37,2013-07-03 06:17:00,
2013-07-03 07:22:00,60.3,60.3,29.63,SSW,202,1.6,4.6,100,0.00,CLR,SKC,0.04,WeatherDisplay:10.37,2013-07-03 06:22:00,
2013-07-03 07:24:00,60.3,60.3,29.63,SSW,202,1.6,4.6,100,0.00,CLR,SKC,0.04,WeatherDisplay:10.37,2013-07-03 06:24:00,
2013-07-03 07:28:00,60.3,60.3,29.63,SSW,202,1.6,4.6,100,0.00,CLR,SKC,0.04,WeatherDisplay:10.37,2013-07-03 06:28:00,
2013-07-03 07:32:00,61.0,61.0,29.63,South,180,0.7,3.5,100,0.00,CLR,SKC,0.04,WeatherDisplay:10.37,2013-07-03 06:32:00,
2013-07-03 07:37:00,61.0,61.0,29.63,South,180,0.7,3.5,100,0.00,CLR,SKC,0.04,WeatherDisplay:10.37,2013-07-03 06:37:00,
2013-07-03 07:43:00,61.0,61.0,29.65,NW,315,2.2,6.0,100,0.00,CLR,SKC,0.04,WeatherDisplay:10.37,2013-07-03 06:43:00,
2013-07-03 07:48:00,61.0,60.7,29.65,NW,315,1.6,5.8,99,0.00,CLR,SKC,0.04,WeatherDisplay:10.37,2013-07-03 06:48:00,
2013-07-03 07:53:00,61.0,60.7,29.65,SW,225,0.7,3.5,99,0.00,CLR,SKC,0.04,WeatherDisplay:10.37,2013-07-03 06:53:00,
2013-07-03 07:55:00,61.0,60.7,29.65,SW,225,0.7,3.5,99,0.00,CLR,SKC,0.04,WeatherDisplay:10.37,2013-07-03 06:55:00,
2013-07-03 08:01:00,61.0,60.7,29.66,North,0,0.7,3.5,99,0.00,CLR,SKC,0.04,WeatherDisplay:10.37,2013-07-03 07:01:00,
2013-07-03 08:06:00,61.0,60.7,29.66,North,0,0.7,3.5,99,0.00,CLR,SKC,0.04,WeatherDisplay:10.37,2013-07-03 07:06:00,
2013-07-03 08:11:00,60.6,60.1,29.66,South,180,0.7,4.6,98,0.00,CLR,SKC,0.04,WeatherDisplay:10.37,2013-07-03 07:11:00,
2013-07-03 08:16:00,60.6,60.1,29.66,South,180,0.7,4.6,98,0.00,CLR,SKC,0.04,WeatherDisplay:10.37,2013-07-03 07:16:00,
2013-07-03 08:17:00,60.6,60.1,29.66,South,180,0.7,4.6,98,0.00,CLR,SKC,0.04,WeatherDisplay:10.37,2013-07-03 07:17:00,
2013-07-03 08:22:00,60.8,60.2,29.67,North,0,2.2,8.3,98,0.00,CLR,SKC,0.04,WeatherDisplay:10.37,2013-07-03 07:22:00,
2013-07-03 08:27:00,60.8,60.2,29.67,North,0,2.2,8.3,98,0.00,CLR,SKC,0.04,WeatherDisplay:10.37,2013-07-03 07:27:00,
2013-07-03 08:32:00,60.6,60.1,29.67,North,0,1.6,6.9,98,0.00,CLR,SKC,0.04,WeatherDisplay:10.37,2013-07-03 07:32:00,
2013-07-03 08:37:00,60.6,59.8,29.67,NW,315,2.2,6.9,97,0.00,CLR,SKC,0.04,WeatherDisplay:10.37,2013-07-03 07:37:00,
2013-07-03 08:38:00,60.6,59.8,29.67,NW,315,2.2,6.9,97,0.00,CLR,SKC,0.04,WeatherDisplay:10.37,2013-07-03 07:38:00,
2013-07-03 08:43:00,60.6,59.8,29.67,NW,315,1.6,5.8,97,0.00,CLR,SKC,0.04,WeatherDisplay:10.37,2013-07-03 07:43:00,
2013-07-03 08:48:00,60.4,59.9,29.68,NW,315,1.6,3.5,98,0.00,CLR,SKC,0.04,WeatherDisplay:10.37,2013-07-03 07:48:00,
2013-07-03 08:50:00,60.8,60.2,29.68,NW,317,0.0,4.0,98,0.00,CLR,SKC,0.04,WeatherDisplay:10.37,2013-07-03 07:50:00,
2013-07-03 08:55:00,60.8,60.2,29.68,North,0,0.0,1.1,98,0.00,CLR,SKC,0.04,WeatherDisplay:10.37,2013-07-03 07:55:00,
2013-07-03 09:00:00,61.2,60.3,29.69,NW,318,2.0,6.0,97,0.00,CLR,SKC,0.04,WeatherDisplay:10.37,2013-07-03 08:00:00,
2013-07-03 09:01:00,61.2,60.3,29.69,NW,315,2.2,5.8,97,0.00,CLR,SKC,0.04,WeatherDisplay:10.37,2013-07-03 08:01:00,
2013-07-03 09:07:00,61.2,60.3,29.69,NW,315,2.2,5.8,97,0.00,CLR,SKC,0.04,WeatherDisplay:10.37,2013-07-03 08:07:00,
2013-07-03 09:10:00,61.9,60.4,29.69,NW,325,1.0,6.0,95,0.00,CLR,SKC,0.04,WeatherDisplay:10.37,2013-07-03 08:10:00,
2013-07-03 09:14:00,61.9,60.4,29.69,WSW,248,1.6,5.8,95,0.00,CLR,SKC,0.04,WeatherDisplay:10.37,2013-07-03 08:14:00,
2013-07-03 09:18:00,62.1,60.6,29.69,NW,315,0.7,3.5,95,0.00,CLR,SKC,0.04,WeatherDisplay:10.37,2013-07-03 08:18:00,
2013-07-03 09:23:00,62.6,60.8,29.69,NW,315,1.6,6.0,94,0.00,CLR,SKC,0.04,WeatherDisplay:10.37,2013-07-03 08:23:00,
2013-07-03 09:29:00,62.8,60.4,29.70,NW,315,0.7,5.8,92,0.00,CLR,SKC,0.04,WeatherDisplay:10.37,2013-07-03 08:29:00,
2013-07-03 09:34:00,62.8,60.4,29.70,East,90,0.0,3.5,92,0.00,CLR,SKC,0.04,WeatherDisplay:10.37,2013-07-03 08:34:00,
2013-07-03 09:39:00,63.0,60.3,29.70,NW,315,1.6,4.6,91,0.00,CLR,SKC,0.04,WeatherDisplay:10.37,2013-07-03 08:39:00,
2013-07-03 09:44:00,63.0,60.3,29.70,West,270,0.7,4.6,91,0.00,CLR,SKC,0.04,WeatherDisplay:10.37,2013-07-03 08:44:00,
2013-07-03 09:46:00,63.0,60.3,29.70,West,270,0.7,4.6,91,0.00,CLR,SKC,0.04,WeatherDisplay:10.37,2013-07-03 08:46:00,
2013-07-03 09:51:00,63.0,60.3,29.70,NW,315,1.1,22.2,91,0.00,CLR,SKC,0.04,WeatherDisplay:10.37,2013-07-03 08:51:00,
2013-07-03 09:54:00,63.0,60.3,29.70,NW,315,1.1,22.2,91,0.00,CLR,SKC,0.04,WeatherDisplay:10.37,2013-07-03 08:54:00,
2013-07-03 09:56:00,63.0,60.3,29.70,NW,315,1.1,22.2,91,0.00,CLR,SKC,0.04,WeatherDisplay:10.37,2013-07-03 08:56:00,
2013-07-03 10:01:00,63.1,60.5,29.71,NW,315,1.6,2.3,91,0.00,CLR,SKC,0.04,WeatherDisplay:10.37,2013-07-03 09:01:00,
2013-07-03 10:06:00,63.1,60.5,29.71,NW,315,1.6,2.3,91,0.00,CLR,SKC,0.04,WeatherDisplay:10.37,2013-07-03 09:06:00,
2013-07-03 10:11:00,63.1,60.2,29.71,West,270,1.6,5.8,90,0.00,CLR,SKC,0.04,WeatherDisplay:10.37,2013-07-03 09:11:00,
2013-07-03 10:16:00,63.1,60.2,29.71,West,270,1.6,5.8,90,0.00,CLR,SKC,0.04,WeatherDisplay:10.37,2013-07-03 09:16:00,
2013-07-03 10:22:00,63.1,60.2,29.72,North,0,2.2,3.8,90,0.00,CLR,SKC,0.04,WeatherDisplay:10.37,2013-07-03 09:22:00,
2013-07-03 10:27:00,63.1,60.2,29.72,North,0,2.2,3.8,90,0.00,CLR,SKC,0.04,WeatherDisplay:10.37,2013-07-03 09:27:00,
2013-07-03 10:32:00,62.8,60.4,29.72,West,270,3.1,7.6,92,0.00,CLR,SKC,0.04,WeatherDisplay:10.37,2013-07-03 09:32:00,
2013-07-03 10:38:00,63.0,60.6,29.73,NW,315,2.2,8.1,92,0.00,CLR,SKC,0.04,WeatherDisplay:10.37,2013-07-03 09:38:00,
2013-07-03 10:41:00,63.1,60.5,29.72,NW,315,0.7,5.8,91,0.00,CLR,SKC,0.04,WeatherDisplay:10.37,2013-07-03 09:41:00,
2013-07-03 10:46:00,63.1,60.5,29.72,NW,315,0.7,5.8,91,0.00,CLR,SKC,0.04,WeatherDisplay:10.37,2013-07-03 09:46:00,
2013-07-03 10:50:00,63.7,60.4,29.73,South,180,3.1,10.7,89,0.00,CLR,SKC,0.04,WeatherDisplay:10.37,2013-07-03 09:50:00,
2013-07-03 10:51:00,63.7,60.4,29.73,South,180,3.1,10.7,89,0.00,CLR,SKC,0.04,WeatherDisplay:10.37,2013-07-03 09:51:00,
2013-07-03 10:56:00,63.7,60.4,29.73,South,180,3.1,10.7,89,0.00,CLR,SKC,0.04,WeatherDisplay:10.37,2013-07-03 09:56:00,
2013-07-03 11:01:00,63.5,60.2,29.74,NW,315,1.6,4.6,89,0.00,CLR,SKC,0.04,WeatherDisplay:10.37,2013-07-03 10:01:00,
2013-07-03 11:04:00,63.5,60.2,29.74,NW,315,1.6,4.6,89,0.00,CLR,SKC,0.04,WeatherDisplay:10.37,2013-07-03 10:04:00,
2013-07-03 11:05:00,63.5,60.2,29.74,NW,315,1.6,4.6,89,0.00,CLR,SKC,0.04,WeatherDisplay:10.37,2013-07-03 10:05:00,
2013-07-03 11:11:00,63.3,60.0,29.74,NW,315,0.7,3.5,89,0.00,CLR,SKC,0.04,WeatherDisplay:10.37,2013-07-03 10:11:00,
2013-07-03 11:16:00,63.3,60.0,29.74,NW,315,0.7,3.5,89,0.00,CLR,SKC,0.04,WeatherDisplay:10.37,2013-07-03 10:16:00,
2013-07-03 11:21:00,64.2,60.6,29.74,WNW,292,1.6,3.8,88,0.00,CLR,SKC,0.04,WeatherDisplay:10.37,2013-07-03 10:21:00,
2013-07-03 11:26:00,64.2,60.6,29.74,WNW,292,1.6,3.8,88,0.00,CLR,SKC,0.04,WeatherDisplay:10.37,2013-07-03 10:26:00,
2013-07-03 11:31:00,65.7,60.7,29.74,North,0,3.1,6.0,84,0.00,CLR,SKC,0.04,WeatherDisplay:10.37,2013-07-03 10:31:00,
2013-07-03 11:36:00,65.7,60.7,29.74,North,0,3.1,6.0,84,0.00,CLR,SKC,0.04,WeatherDisplay:10.37,2013-07-03 10:36:00,
2013-07-03 11:41:00,66.7,60.7,29.75,North,0,1.6,4.6,81,0.00,CLR,SKC,0.04,WeatherDisplay:10.37,2013-07-03 10:41:00,
2013-07-03 11:47:00,66.7,60.7,29.75,North,0,1.6,4.6,81,0.00,CLR,SKC,0.04,WeatherDisplay:10.37,2013-07-03 10:47:00,
2013-07-03 11:49:00,66.4,60.4,29.75,NE,45,1.6,4.6,81,0.00,CLR,SKC,0.04,WeatherDisplay:10.37,2013-07-03 10:49:00,
2013-07-03 11:54:00,66.4,60.4,29.75,NE,45,1.6,3.5,81,0.00,CLR,SKC,0.04,WeatherDisplay:10.37,2013-07-03 10:54:00,
2013-07-03 11:55:00,66.4,60.4,29.75,NE,45,1.6,3.5,81,0.00,CLR,SKC,0.04,WeatherDisplay:10.37,2013-07-03 10:55:00,
2013-07-03 11:57:00,66.4,60.4,29.75,NE,45,1.6,3.5,81,0.00,CLR,SKC,0.04,WeatherDisplay:10.37,2013-07-03 10:57:00,
2013-07-03 12:02:00,65.5,60.2,29.75,NW,315,3.1,8.1,83,0.00,CLR,SKC,0.04,WeatherDisplay:10.37,2013-07-03 11:02:00,
2013-07-03 12:07:00,65.5,60.2,29.75,NW,315,3.1,8.1,83,0.00,CLR,SKC,0.04,WeatherDisplay:10.37,2013-07-03 11:07:00,
2013-07-03 12:10:00,64.9,60.3,29.75,South,180,2.2,6.9,85,0.00,CLR,SKC,0.04,WeatherDisplay:10.37,2013-07-03 11:10:00,
2013-07-03 12:11:00,64.9,60.3,29.75,South,180,2.2,6.9,85,0.00,CLR,SKC,0.04,WeatherDisplay:10.37,2013-07-03 11:11:00,
2013-07-03 12:16:00,64.9,60.3,29.75,South,180,2.2,6.9,85,0.00,CLR,SKC,0.04,WeatherDisplay:10.37,2013-07-03 11:16:00,
2013-07-03 12:19:00,65.7,60.7,29.77,NW,315,3.1,6.0,84,0.00,CLR,SKC,0.04,WeatherDisplay:10.37,2013-07-03 11:19:00,
2013-07-03 12:23:00,65.7,60.7,29.77,NW,315,3.1,6.0,84,0.00,CLR,SKC,0.04,WeatherDisplay:10.37,2013-07-03 11:23:00,
2013-07-03 12:25:00,65.7,60.7,29.77,NW,315,3.1,6.0,84,0.00,CLR,SKC,0.04,WeatherDisplay:10.37,2013-07-03 11:25:00,
2013-07-03 12:30:00,67.1,60.4,29.77,North,0,1.6,5.8,79,0.00,CLR,SKC,0.04,WeatherDisplay:10.37,2013-07-03 11:30:00,
2013-07-03 12:35:00,67.1,60.4,29.77,North,0,1.6,5.8,79,0.00,CLR,SKC,0.04,WeatherDisplay:10.37,2013-07-03 11:35:00,
2013-07-03 12:40:00,66.2,60.2,29.77,NW,315,2.2,9.2,81,0.00,CLR,SKC,0.04,WeatherDisplay:10.37,2013-07-03 11:40:00,
2013-07-03 12:45:00,66.2,60.2,29.77,NW,315,2.2,9.2,81,0.00,CLR,SKC,0.04,WeatherDisplay:10.37,2013-07-03 11:45:00,
2013-07-03 12:46:00,66.2,60.2,29.77,NW,315,2.2,9.2,81,0.00,CLR,SKC,0.04,WeatherDisplay:10.37,2013-07-03 11:46:00,
2013-07-03 12:51:00,65.7,60.7,29.78,NE,45,2.2,4.6,84,0.00,CLR,SKC,0.04,WeatherDisplay:10.37,2013-07-03 11:51:00,
2013-07-03 12:56:00,65.7,60.7,29.78,NE,45,2.2,4.6,84,0.00,CLR,SKC,0.04,WeatherDisplay:10.37,2013-07-03 11:56:00,
2013-07-03 12:59:00,66.4,61.1,29.78,West,270,1.6,4.6,83,0.00,CLR,SKC,0.04,WeatherDisplay:10.37,2013-07-03 11:59:00,
2013-07-03 13:03:00,66.6,60.9,29.78,South,180,2.2,5.4,82,0.00,CLR,SKC,0.04,WeatherDisplay:10.37,2013-07-03 12:03:00,
2013-07-03 13:08:00,66.6,60.9,29.78,South,180,2.2,5.4,82,0.00,CLR,SKC,0.04,WeatherDisplay:10.37,2013-07-03 12:08:00,
2013-07-03 13:13:00,66.7,60.7,29.78,North,0,0.7,3.8,81,0.00,CLR,SKC,0.04,WeatherDisplay:10.37,2013-07-03 12:13:00,
2013-07-03 13:17:00,66.7,60.7,29.78,North,0,0.7,3.8,81,0.00,CLR,SKC,0.04,WeatherDisplay:10.37,2013-07-03 12:17:00,
2013-07-03 13:20:00,67.1,60.7,29.79,WSW,248,2.2,4.5,80,0.00,CLR,SKC,0.04,WeatherDisplay:10.37,2013-07-03 12:20:00,
2013-07-03 13:25:00,66.9,60.5,29.79,NW,315,2.2,4.6,80,0.00,CLR,SKC,0.04,WeatherDisplay:10.37,2013-07-03 12:25:00,
2013-07-03 13:30:00,66.7,60.7,29.80,NW,315,2.2,5.8,81,0.00,CLR,SKC,0.04,WeatherDisplay:10.37,2013-07-03 12:30:00,
2013-07-03 13:35:00,66.7,60.7,29.80,NW,315,2.2,5.8,81,0.00,CLR,SKC,0.04,WeatherDisplay:10.37,2013-07-03 12:35:00,
2013-07-03 13:40:00,66.7,60.4,29.80,NW,306,3.0,7.0,80,0.00,CLR,SKC,0.04,WeatherDisplay:10.37,2013-07-03 12:40:00,
2013-07-03 13:45:00,66.7,60.4,29.79,North,0,3.1,6.9,80,0.00,CLR,SKC,0.04,WeatherDisplay:10.37,2013-07-03 12:45:00,
2013-07-03 13:46:00,66.7,60.4,29.79,North,0,3.1,6.9,80,0.00,CLR,SKC,0.04,WeatherDisplay:10.37,2013-07-03 12:46:00,
2013-07-03 13:51:00,68.9,60.6,29.80,NE,45,0.7,3.5,75,0.00,CLR,SKC,0.04,WeatherDisplay:10.37,2013-07-03 12:51:00,
2013-07-03 13:57:00,68.9,60.6,29.80,NE,45,0.7,3.5,75,0.00,CLR,SKC,0.04,WeatherDisplay:10.37,2013-07-03 12:57:00,
2013-07-03 14:02:00,68.5,60.7,29.80,NW,315,2.2,4.6,76,0.00,CLR,SKC,0.04,WeatherDisplay:10.37,2013-07-03 13:02:00,
2013-07-03 14:07:00,68.5,60.7,29.80,NW,315,2.2,4.6,76,0.00,CLR,SKC,0.04,WeatherDisplay:10.37,2013-07-03 13:07:00,
2013-07-03 14:12:00,68.0,60.2,29.80,North,0,0.7,6.9,76,0.00,CLR,SKC,0.04,WeatherDisplay:10.37,2013-07-03 13:12:00,
2013-07-03 14:17:00,68.0,60.2,29.80,North,0,0.7,6.9,76,0.00,CLR,SKC,0.04,WeatherDisplay:10.37,2013-07-03 13:17:00,
2013-07-03 14:22:00,68.7,60.5,29.80,NW,315,3.1,6.0,75,0.00,CLR,SKC,0.04,WeatherDisplay:10.37,2013-07-03 13:22:00,
2013-07-03 14:25:00,68.7,60.5,29.80,NW,315,3.1,6.0,75,0.00,CLR,SKC,0.04,WeatherDisplay:10.37,2013-07-03 13:25:00,
2013-07-03 14:28:00,68.9,60.3,29.80,West,270,0.0,5.8,74,0.00,CLR,SKC,0.04,WeatherDisplay:10.37,2013-07-03 13:28:00,
2013-07-03 14:33:00,69.4,60.0,29.81,North,0,2.2,4.5,72,0.00,CLR,SKC,0.04,WeatherDisplay:10.37,2013-07-03 13:33:00,
2013-07-03 14:37:00,69.4,60.0,29.81,North,0,2.2,4.5,72,0.00,CLR,SKC,0.04,WeatherDisplay:10.37,2013-07-03 13:37:00,
2013-07-03 14:42:00,69.4,60.4,29.81,North,0,0.7,3.5,73,0.00,CLR,SKC,0.04,WeatherDisplay:10.37,2013-07-03 13:42:00,
2013-07-03 14:47:00,69.4,60.4,29.81,North,0,0.7,3.5,73,0.00,CLR,SKC,0.04,WeatherDisplay:10.37,2013-07-03 13:47:00,
2013-07-03 14:52:00,69.3,60.6,29.82,NE,45,0.0,1.6,74,0.01,RA,SKC,0.05,WeatherDisplay:10.37,2013-07-03 13:52:00,
2013-07-03 14:58:00,69.6,60.6,29.82,WNW,292,0.0,3.8,73,0.01,RA,SKC,0.05,WeatherDisplay:10.37,2013-07-03 13:58:00,
2013-07-03 15:03:00,69.6,60.2,29.82,West,270,1.6,4.5,72,0.01,RA,SKC,0.05,WeatherDisplay:10.37,2013-07-03 14:03:00,
2013-07-03 15:08:00,69.8,60.4,29.82,NW,315,2.2,4.6,72,0.01,RA,SKC,0.05,WeatherDisplay:10.37,2013-07-03 14:08:00,
2013-07-03 15:09:00,70.3,59.7,29.82,North,0,2.2,4.6,69,0.01,RA,SKC,0.05,WeatherDisplay:10.37,2013-07-03 14:09:00,
2013-07-03 15:14:00,70.3,59.7,29.82,North,0,2.2,4.6,69,0.01,RA,SKC,0.05,WeatherDisplay:10.37,2013-07-03 14:14:00,
2013-07-03 15:18:00,70.3,59.3,29.82,North,0,2.2,5.8,68,0.01,,SKC,0.05,WeatherDisplay:10.37,2013-07-03 14:18:00,
2013-07-03 15:23:00,70.5,59.4,29.83,North,0,0.7,4.6,68,0.01,CLR,SKC,0.05,WeatherDisplay:10.37,2013-07-03 14:23:00,
2013-07-03 15:28:00,70.7,59.6,29.83,SE,135,1.6,4.6,68,0.01,CLR,SKC,0.05,WeatherDisplay:10.37,2013-07-03 14:28:00,
2013-07-03 15:30:00,70.5,58.6,29.83,West,270,3.1,6.0,66,0.01,CLR,SKC,0.05,WeatherDisplay:10.37,2013-07-03 14:30:00,
2013-07-03 15:35:00,70.5,58.6,29.83,West,270,3.1,6.0,66,0.01,CLR,SKC,0.05,WeatherDisplay:10.37,2013-07-03 14:35:00,
2013-07-03 15:40:00,70.3,59.3,29.83,WNW,292,2.2,5.4,68,0.01,CLR,SKC,0.05,WeatherDisplay:10.37,2013-07-03 14:40:00,
2013-07-03 15:41:00,70.3,59.3,29.83,WNW,292,2.2,5.4,68,0.01,CLR,SKC,0.05,WeatherDisplay:10.37,2013-07-03 14:41:00,
2013-07-03 15:46:00,70.3,59.3,29.83,WNW,292,2.2,5.4,68,0.01,CLR,SKC,0.05,WeatherDisplay:10.37,2013-07-03 14:46:00,
2013-07-03 15:51:00,70.2,59.5,29.83,NNW,338,2.2,4.5,69,0.01,CLR,SKC,0.05,WeatherDisplay:10.37,2013-07-03 14:51:00,
2013-07-03 15:52:00,70.2,59.5,29.83,NNW,338,2.2,4.5,69,0.01,CLR,SKC,0.05,WeatherDisplay:10.37,2013-07-03 14:52:00,
2013-07-03 15:57:00,70.2,59.5,29.83,NNW,338,2.2,4.5,69,0.01,CLR,SKC,0.05,WeatherDisplay:10.37,2013-07-03 14:57:00,
2013-07-03 16:00:00,69.4,58.8,29.84,NW,315,2.2,6.0,69,0.01,CLR,SKC,0.05,WeatherDisplay:10.37,2013-07-03 15:00:00,
2013-07-03 16:03:00,69.4,58.8,29.84,North,0,1.6,5.8,69,0.01,CLR,SKC,0.05,WeatherDisplay:10.37,2013-07-03 15:03:00,
2013-07-03 16:09:00,68.9,58.3,29.84,WNW,292,3.8,8.3,69,0.01,CLR,SKC,0.05,WeatherDisplay:10.37,2013-07-03 15:09:00,
2013-07-03 16:14:00,68.9,58.3,29.85,North,0,1.6,8.1,69,0.01,CLR,SKC,0.05,WeatherDisplay:10.37,2013-07-03 15:14:00,
2013-07-03 16:16:00,68.9,58.3,29.85,North,0,1.6,8.1,69,0.01,CLR,SKC,0.05,WeatherDisplay:10.37,2013-07-03 15:16:00,
2013-07-03 16:22:00,68.7,58.1,29.84,WSW,248,1.6,5.8,69,0.01,CLR,SKC,0.05,WeatherDisplay:10.37,2013-07-03 15:22:00,
2013-07-03 16:27:00,68.7,58.1,29.84,WSW,248,1.6,5.8,69,0.01,CLR,SKC,0.05,WeatherDisplay:10.37,2013-07-03 15:27:00,
2013-07-03 16:28:00,68.7,58.1,29.85,North,0,1.6,5.8,69,0.01,CLR,SKC,0.05,WeatherDisplay:10.37,2013-07-03 15:28:00,
2013-07-03 16:33:00,68.7,58.1,29.85,North,0,3.8,7.6,69,0.01,CLR,SKC,0.05,WeatherDisplay:10.37,2013-07-03 15:33:00,
2013-07-03 16:38:00,68.9,57.9,29.85,North,0,2.2,8.1,68,0.01,CLR,SKC,0.05,WeatherDisplay:10.37,2013-07-03 15:38:00,
2013-07-03 16:40:00,64.8,57.4,29.98,NW,315,1.0,3.0,77,0.00,RA,SKC,0.05,WeatherDisplay:10.37,2013-07-03 15:40:00,
2013-07-03 16:43:00,68.9,57.9,29.85,NW,315,1.6,5.8,68,0.01,CLR,SKC,0.05,WeatherDisplay:10.37,2013-07-03 15:43:00,
2013-07-03 16:45:00,64.8,57.4,29.98,NW,311,0.0,4.0,77,0.00,RA,SKC,0.05,WeatherDisplay:10.37,2013-07-03 15:45:00,
2013-07-03 16:48:00,69.3,58.2,29.86,NW,315,3.8,6.0,68,0.01,CLR,SKC,0.05,WeatherDisplay:10.37,2013-07-03 15:48:00,
2013-07-03 16:50:00,64.6,57.6,29.99,WNW,301,1.0,4.0,78,0.00,RA,SKC,0.05,WeatherDisplay:10.37,2013-07-03 15:50:00,
2013-07-03 16:52:00,69.1,58.1,29.85,NE,45,1.6,6.9,68,0.01,CLR,SKC,0.05,WeatherDisplay:10.37,2013-07-03 15:52:00,
2013-07-03 16:57:00,69.3,58.2,29.86,NE,45,3.1,6.0,68,0.01,CLR,SKC,0.05,WeatherDisplay:10.37,2013-07-03 15:57:00,
2013-07-03 17:02:00,68.9,57.9,29.86,NW,315,3.1,8.1,68,0.01,CLR,SKC,0.05,WeatherDisplay:10.37,2013-07-03 16:02:00,
2013-07-03 17:07:00,69.1,58.1,29.86,NE,45,1.6,8.1,68,0.01,CLR,SKC,0.05,WeatherDisplay:10.37,2013-07-03 16:07:00,
2013-07-03 17:12:00,69.3,58.2,29.86,North,0,3.1,6.9,68,0.01,CLR,SKC,0.05,WeatherDisplay:10.37,2013-07-03 16:12:00,
2013-07-03 17:17:00,69.3,58.2,29.86,North,0,3.1,8.1,68,0.01,CLR,SKC,0.05,WeatherDisplay:10.37,2013-07-03 16:17:00,
2013-07-03 17:23:00,69.1,58.1,29.87,NW,315,3.1,6.9,68,0.00,CLR,SKC,0.05,WeatherDisplay:10.37,2013-07-03 16:23:00,
2013-07-03 17:28:00,69.1,58.1,29.87,North,0,2.2,6.9,68,0.00,CLR,SKC,0.05,WeatherDisplay:10.37,2013-07-03 16:28:00,
2013-07-03 17:33:00,69.1,58.1,29.87,NE,45,1.6,3.8,68,0.00,CLR,SKC,0.05,WeatherDisplay:10.37,2013-07-03 16:33:00,
2013-07-03 17:38:00,69.1,58.1,29.87,NNW,338,0.7,3.5,68,0.00,CLR,SKC,0.05,WeatherDisplay:10.37,2013-07-03 16:38:00,
2013-07-03 17:43:00,70.3,58.9,29.87,NW,315,0.7,3.5,67,0.00,CLR,SKC,0.05,WeatherDisplay:10.37,2013-07-03 16:43:00,
2013-07-03 17:48:00,71.1,58.3,29.88,NW,315,1.6,6.9,64,0.00,CLR,SKC,0.05,WeatherDisplay:10.37,2013-07-03 16:48:00,
2013-07-03 17:54:00,70.7,57.9,29.88,NW,315,3.1,6.9,64,0.00,CLR,SKC,0.05,WeatherDisplay:10.37,2013-07-03 16:54:00,
2013-07-03 18:00:00,69.3,57.8,29.88,West,270,3.8,8.3,67,0.00,CLR,SKC,0.05,WeatherDisplay:10.37,2013-07-03 17:00:00,
2013-07-03 18:05:00,69.3,57.8,29.88,West,270,3.8,8.3,67,0.00,CLR,SKC,0.05,WeatherDisplay:10.37,2013-07-03 17:05:00,
2013-07-03 18:10:00,68.4,58.2,29.89,NW,316,1.0,8.0,70,0.00,CLR,SKC,0.05,WeatherDisplay:10.37,2013-07-03 17:10:00,
2013-07-03 18:15:00,68.4,58.2,29.89,NW,315,1.6,8.1,70,0.00,CLR,SKC,0.05,WeatherDisplay:10.37,2013-07-03 17:15:00,
2013-07-03 18:21:00,68.4,57.8,29.90,NW,315,2.2,6.0,69,0.00,CLR,SKC,0.05,WeatherDisplay:10.37,2013-07-03 17:21:00,
2013-07-03 18:26:00,68.4,57.8,29.90,NW,315,2.2,6.0,69,0.00,CLR,SKC,0.05,WeatherDisplay:10.37,2013-07-03 17:26:00,
2013-07-03 18:31:00,68.2,57.6,29.90,NNW,338,0.7,4.6,69,0.00,CLR,SKC,0.05,WeatherDisplay:10.37,2013-07-03 17:31:00,
2013-07-03 18:36:00,68.2,57.6,29.90,NNW,338,0.7,4.6,69,0.00,CLR,SKC,0.05,WeatherDisplay:10.37,2013-07-03 17:36:00,
2013-07-03 18:42:00,67.8,57.3,29.90,North,0,2.2,6.0,69,0.00,CLR,SKC,0.05,WeatherDisplay:10.37,2013-07-03 17:42:00,
2013-07-03 18:47:00,67.8,57.3,29.90,North,0,2.2,6.0,69,0.00,CLR,SKC,0.05,WeatherDisplay:10.37,2013-07-03 17:47:00,
2013-07-03 18:52:00,67.3,57.6,29.91,North,0,0.0,5.8,71,0.00,CLR,SKC,0.05,WeatherDisplay:10.37,2013-07-03 17:52:00,
2013-07-03 18:57:00,67.3,57.6,29.91,North,0,0.0,5.8,71,0.00,CLR,SKC,0.05,WeatherDisplay:10.37,2013-07-03 17:57:00,
2013-07-03 19:02:00,67.1,57.4,29.91,West,270,1.6,5.8,71,0.00,CLR,SKC,0.05,WeatherDisplay:10.37,2013-07-03 18:02:00,
2013-07-03 19:07:00,67.1,57.4,29.91,West,270,1.6,5.8,71,0.00,CLR,SKC,0.05,WeatherDisplay:10.37,2013-07-03 18:07:00,
2013-07-03 19:12:00,67.1,57.4,29.91,West,270,2.2,4.5,71,0.00,CLR,SKC,0.05,WeatherDisplay:10.37,2013-07-03 18:12:00,
2013-07-03 19:17:00,67.1,57.4,29.91,NW,315,1.6,4.6,71,0.00,CLR,SKC,0.05,WeatherDisplay:10.37,2013-07-03 18:17:00,
2013-07-03 19:23:00,66.9,57.2,29.92,North,0,2.2,6.0,71,0.00,CLR,SKC,0.05,WeatherDisplay:10.37,2013-07-03 18:23:00,
2013-07-03 19:28:00,66.7,57.0,29.92,NW,315,0.7,5.8,71,0.00,CLR,SKC,0.05,WeatherDisplay:10.37,2013-07-03 18:28:00,
2013-07-03 19:33:00,66.7,57.4,29.93,NW,315,1.6,6.0,72,0.00,CLR,SKC,0.05,WeatherDisplay:10.37,2013-07-03 18:33:00,
2013-07-03 19:38:00,66.7,57.4,29.92,NNW,338,2.2,5.8,72,0.00,CLR,SKC,0.05,WeatherDisplay:10.37,2013-07-03 18:38:00,
2013-07-03 19:39:00,66.7,57.0,29.93,NNW,338,1.6,5.8,71,0.00,CLR,SKC,0.05,WeatherDisplay:10.37,2013-07-03 18:39:00,
2013-07-03 19:44:00,66.7,57.0,29.93,NNW,338,1.6,5.8,71,0.00,CLR,SKC,0.05,WeatherDisplay:10.37,2013-07-03 18:44:00,
2013-07-03 19:54:00,66.7,57.0,29.93,North,0,1.6,4.6,71,0.00,CLR,SKC,0.05,WeatherDisplay:10.37,2013-07-03 18:54:00,
2013-07-03 19:59:00,66.2,56.1,29.94,North,0,2.2,6.9,70,0.00,CLR,SKC,0.05,WeatherDisplay:10.37,2013-07-03 18:59:00,
2013-07-03 20:04:00,66.0,56.0,29.93,NW,315,3.1,6.9,70,0.00,CLR,SKC,0.05,WeatherDisplay:10.37,2013-07-03 19:04:00,
2013-07-03 20:10:00,66.2,56.5,29.94,NW,306,1.0,7.0,71,0.00,CLR,SKC,0.05,WeatherDisplay:10.37,2013-07-03 19:10:00,
2013-07-03 20:16:00,66.2,56.5,29.94,NW,315,0.7,2.2,71,0.00,CLR,SKC,0.05,WeatherDisplay:10.37,2013-07-03 19:16:00,
2013-07-03 20:21:00,66.0,56.3,29.94,North,0,2.2,5.8,71,0.00,CLR,SKC,0.05,WeatherDisplay:10.37,2013-07-03 19:21:00,
2013-07-03 20:26:00,66.0,56.3,29.94,North,0,2.2,5.8,71,0.00,CLR,SKC,0.05,WeatherDisplay:10.37,2013-07-03 19:26:00,
2013-07-03 20:31:00,65.8,56.2,29.94,North,0,1.6,8.1,71,0.00,CLR,SKC,0.05,WeatherDisplay:10.37,2013-07-03 19:31:00,
2013-07-03 20:37:00,65.8,56.2,29.94,North,0,1.6,8.1,71,0.00,CLR,SKC,0.05,WeatherDisplay:10.37,2013-07-03 19:37:00,
2013-07-03 20:42:00,65.5,56.2,29.95,NW,315,2.2,4.6,72,0.00,CLR,SKC,0.05,WeatherDisplay:10.37,2013-07-03 19:42:00,
2013-07-03 20:47:00,65.5,56.2,29.95,NW,315,2.2,4.6,72,0.00,CLR,SKC,0.05,WeatherDisplay:10.37,2013-07-03 19:47:00,
2013-07-03 20:52:00,65.5,56.2,29.95,North,0,0.0,1.6,72,0.00,CLR,SKC,0.05,WeatherDisplay:10.37,2013-07-03 19:52:00,
2013-07-03 20:57:00,65.5,56.2,29.95,North,0,0.0,1.6,72,0.00,CLR,SKC,0.05,WeatherDisplay:10.37,2013-07-03 19:57:00,
2013-07-03 21:03:00,65.5,56.6,29.96,North,0,0.7,2.3,73,0.00,CLR,SKC,0.05,WeatherDisplay:10.37,2013-07-03 20:03:00,
2013-07-03 21:08:00,65.3,56.4,29.96,North,0,1.6,3.8,73,0.00,CLR,SKC,0.05,WeatherDisplay:10.37,2013-07-03 20:08:00,
2013-07-03 21:13:00,65.3,56.4,29.96,NW,315,1.6,3.8,73,0.00,CLR,SKC,0.05,WeatherDisplay:10.37,2013-07-03 20:13:00,
2013-07-03 21:18:00,65.1,56.6,29.97,NW,315,1.6,3.5,74,0.00,CLR,SKC,0.05,WeatherDisplay:10.37,2013-07-03 20:18:00,
2013-07-03 21:23:00,65.1,56.6,29.97,North,0,0.7,3.5,74,0.00,CLR,SKC,0.05,WeatherDisplay:10.37,2013-07-03 20:23:00,
2013-07-03 21:29:00,65.1,57.0,29.97,NW,315,0.7,3.5,75,0.00,CLR,SKC,0.05,WeatherDisplay:10.37,2013-07-03 20:29:00,
2013-07-03 21:34:00,64.9,56.8,29.98,North,0,0.0,3.8,75,0.00,CLR,SKC,0.05,WeatherDisplay:10.37,2013-07-03 20:34:00,
2013-07-03 21:39:00,64.9,57.2,29.98,WNW,292,0.0,1.6,76,0.00,CLR,SKC,0.05,WeatherDisplay:10.37,2013-07-03 20:39:00,
2013-07-03 21:44:00,64.9,57.2,29.98,North,0,0.7,4.5,76,0.00,CLR,SKC,0.05,WeatherDisplay:10.37,2013-07-03 20:44:00,
2013-07-03 22:08:00,64.4,57.7,29.98,NW,315,0.0,3.8,79,0.00,CLR,SKC,0.05,WeatherDisplay:10.37,2013-07-03 21:08:00,
2013-07-03 22:14:00,64.2,57.6,29.99,NW,315,0.7,2.3,79,0.00,CLR,SKC,0.05,WeatherDisplay:10.37,2013-07-03 21:14:00,
2013-07-03 22:19:00,63.9,57.6,29.99,North,0,0.7,3.5,80,0.00,CLR,SKC,0.05,WeatherDisplay:10.37,2013-07-03 21:19:00,
2013-07-03 22:24:00,63.9,57.9,29.99,NNW,338,2.2,4.6,81,0.00,CLR,SKC,0.05,WeatherDisplay:10.37,2013-07-03 21:24:00,
2013-07-03 22:30:00,63.7,57.7,29.99,North,0,1.6,3.5,81,0.00,CLR,SKC,0.05,WeatherDisplay:10.37,2013-07-03 21:30:00,
2013-07-03 22:35:00,63.7,57.7,29.99,North,0,1.6,3.5,81,0.00,CLR,SKC,0.05,WeatherDisplay:10.37,2013-07-03 21:35:00,
2013-07-03 22:40:00,63.5,57.6,29.99,West,270,0.0,2.3,81,0.00,CLR,SKC,0.05,WeatherDisplay:10.37,2013-07-03 21:40:00,
2013-07-03 22:45:00,63.5,57.6,29.99,West,270,0.0,2.3,81,0.00,CLR,SKC,0.05,WeatherDisplay:10.37,2013-07-03 21:45:00,
2013-07-03 22:50:00,63.1,57.6,29.99,WSW,248,0.7,5.8,82,0.00,CLR,SKC,0.05,WeatherDisplay:10.37,2013-07-03 21:50:00,
2013-07-03 22:55:00,63.1,57.6,29.99,WSW,248,0.7,5.8,82,0.00,CLR,SKC,0.05,WeatherDisplay:10.37,2013-07-03 21:55:00,
2013-07-03 23:00:00,63.0,57.4,29.99,NE,45,0.7,2.3,82,0.00,CLR,SKC,0.05,WeatherDisplay:10.37,2013-07-03 22:00:00,
2013-07-03 23:06:00,63.0,57.4,29.99,NE,45,0.7,2.3,82,0.00,CLR,SKC,0.05,WeatherDisplay:10.37,2013-07-03 22:06:00,
2013-07-03 23:12:00,62.6,57.4,29.99,North,0,0.0,3.5,83,0.00,CLR,SKC,0.05,WeatherDisplay:10.37,2013-07-03 22:12:00,
2013-07-03 23:17:00,62.6,57.4,29.99,North,0,0.0,3.5,83,0.00,CLR,SKC,0.05,WeatherDisplay:10.37,2013-07-03 22:17:00,
2013-07-03 23:22:00,62.4,57.2,29.99,West,270,0.7,3.5,83,0.00,CLR,SKC,0.05,WeatherDisplay:10.37,2013-07-03 22:22:00,
2013-07-03 23:27:00,62.4,57.2,29.99,West,270,0.7,3.5,83,0.00,CLR,SKC,0.05,WeatherDisplay:10.37,2013-07-03 22:27:00,
2013-07-03 23:32:00,62.1,57.2,30.00,NW,315,0.0,3.5,84,0.00,CLR,SKC,0.05,WeatherDisplay:10.37,2013-07-03 22:32:00,
2013-07-03 23:37:00,62.1,57.2,29.99,North,0,0.7,1.6,84,0.00,CLR,SKC,0.05,WeatherDisplay:10.37,2013-07-03 22:37:00,
2013-07-03 23:43:00,61.5,57.0,30.00,North,0,2.2,4.5,85,0.00,CLR,SKC,0.05,WeatherDisplay:10.37,2013-07-03 22:43:00,
2013-07-03 23:48:00,61.5,57.0,30.00,North,0,2.2,4.5,85,0.00,CLR,SKC,0.05,WeatherDisplay:10.37,2013-07-03 22:48:00,
2013-07-03 23:53:00,61.3,57.1,30.00,NW,315,0.7,4.6,86,0.00,CLR,SKC,0.05,WeatherDisplay:10.37,2013-07-03 22:53:00,
2013-07-03 23:58:00,61.0,56.8,30.00,NE,45,0.0,4.6,86,0.00,CLR,SKC,0.05,WeatherDisplay:10.37,2013-07-03 22:58:00,